Home > Weather > Anchorage > Past weeks

Flag for USA Past Weather in Anchorage, Alaska, USA — Yesterday and Last 2 Weeks

Now
65 °F

Overcast.


Feels Like: 65 °F
Forecast: 58 / 65 °F
Wind: 10 mph from South

Location: Lake Hood Seaplane

Current Time: Jul 29, 2016 at 1:51:33 PM

Latest Report: Jul 29, 2016 at 12:53 PM


Visibility: 10 mi

Pressure: 30.08 "Hg

Humidity: 56%

Dew Point: 49 °F

Location of AnchorageLocation

Past Weather in Anchorage — Graph

°F

Anchorage Temperature Yesterday

Maximum temperature yesterday: 70 °F (at 11:53 AM)
Minimum temperature yesterday: 57 °F (at 7:53 AM)
Average temperature yesterday: 64 °F

High & Low Weather Summary for the Past Weeks

 TemperatureHumidityPressure
High80 °F (Jul 18, 4:53 PM)94% (Jul 24, 6:02 PM)30.38 "Hg (Jul 24, 6:02 PM)
Low55 °F (Jul 26, 5:53 AM)36% (Jul 18, 4:53 PM)29.55 "Hg (Jul 23, 12:53 AM)
Average64 °F69%29.94 "Hg
* Reported Jul 14 11:53 AM — Jul 29 11:53 AM, Anchorage, Weather by CustomWeather, © 2016

Note: Actual official high and low records may vary slightly from our data, if they occured in-between our weather recording intervals... More about our weather records

Advertising

Anchorage Weather History for the Previous 24 Hours

Scroll right to see more
 ConditionsComfort  
Time TempWeatherWind HumidityBarometerVisibility
11:53 AM
Fri, Jul 29
65 °FOvercast.13 mph59%30.07 "Hg10 mi
10:53 AM65 °FPassing clouds.13 mph56%30.06 "Hg10 mi
9:53 AM62 °FOvercast.12 mph60%30.06 "Hg10 mi
8:53 AM62 °FMostly cloudy.9 mph60%30.05 "Hg10 mi
7:53 AM62 °FMostly cloudy.9 mph58%30.04 "Hg10 mi
6:53 AM63 °FMostly cloudy.8 mph56%30.03 "Hg10 mi
5:53 AM62 °FMostly cloudy.9 mph56%30.03 "Hg10 mi
4:53 AM61 °FOvercast.6 mph60%30.02 "Hg10 mi
3:53 AM60 °FOvercast.10 mph65%30.02 "Hg10 mi
2:53 AM61 °FMostly cloudy.8 mph62%30.02 "Hg10 mi
1:53 AM61 °FMostly cloudy.9 mph65%30.01 "Hg10 mi
12:53 AM61 °FOvercast.10 mph60%30.01 "Hg10 mi
11:53 PM
Thu, Jul 28
62 °FOvercast.15 mph60%30.01 "Hg10 mi
10:53 PM63 °FBroken clouds.12 mph52%29.98 "Hg10 mi
9:53 PM64 °FOvercast.13 mph50%29.96 "Hg10 mi
8:53 PM65 °FOvercast.12 mph49%29.95 "Hg10 mi
7:53 PM67 °FPassing clouds.12 mph47%29.94 "Hg10 mi
6:53 PM70 °FSunny.15 mph42%29.92 "Hg10 mi
5:53 PM70 °FSunny.13 mph46%29.91 "Hg10 mi
4:53 PM70 °FSunny.15 mph47%29.90 "Hg10 mi
3:53 PM70 °FScattered clouds.15 mph47%29.89 "Hg10 mi
2:53 PM68 °FScattered clouds.15 mph51%29.90 "Hg10 mi
1:53 PM69 °FOvercast.10 mph53%29.89 "Hg10 mi
Weather by CustomWeather, © 2016

See weather overviewHow to use our weather pages